Flag for Denmark Weather past 2 weeks in Horsens, Denmark

48 °F


Feels Like: 45 °F
Forecast: 45 / 53 °F
Wind: 7 mph from East

Location: Billund Lufthavn

Current Time: Oct 9, 2015 at 11:12:22 PM

Latest Report: Oct 9, 2015 at 10:20 PM

Visibility: N/A

Pressure: 30.30 "Hg

Humidity: 71%

Dew point: 39 °F

Location of HorsensLocation

Historic Weather in Horsens — Graph


Horsens temperature yesterday

Maximum temperature yesterday: 52 °F (at 12:20 AM)
Minimum temperature yesterday: 48 °F (at 7:50 PM)
Average temperature yesterday: 50 °F

Past Weeks' High & Low Weather Summary

High64 °F (Oct 2, 1:50 PM)100% (Sep 25, 1:50 AM)30.74 "Hg (Sep 25, 1:50 AM)
Low34 °F (Sep 29, 6:20 AM)46% (Oct 2, 2:20 PM)29.77 "Hg (Oct 6, 4:50 PM)
Average51 °F89%30.24 "Hg
* Reported Sep 24 9:20 PM — Oct 9 9:50 PM, Horsens, Weather by CustomWeather, © 2015

Note: Actual official high and low records may vary slightly from our data, if they occured in-between our weather recording intervals... More about our weather records


Horsens weather history for previous 24 hours

Time TempWeatherWind HumidityBarometerVisibility
9:50 PM
Fri, Oct 9
48 °FOvercast.6 mph71%30.30 "HgN/A
9:20 PM48 °FOvercast.5 mph71%30.30 "HgN/A
8:50 PM48 °FOvercast.5 mph71%30.27 "HgN/A
8:20 PM48 °FOvercast.6 mph71%30.27 "HgN/A
7:50 PM48 °FOvercast.7 mph71%30.27 "HgN/A
7:20 PM50 °FOvercast.7 mph71%30.27 "HgN/A
6:50 PM50 °FOvercast.6 mph76%30.27 "HgN/A
6:20 PM50 °FOvercast.6 mph76%30.27 "HgN/A
5:50 PM50 °FOvercast.6 mph76%30.24 "HgN/A
5:20 PM50 °FOvercast.7 mph76%30.24 "HgN/A
4:20 PM50 °FPartly sunny.7 mph82%30.24 "HgN/A
3:50 PM52 °FPartly sunny.7 mph77%30.24 "HgN/A
3:20 PM52 °FPartly sunny.7 mph82%30.24 "HgN/A
2:50 PM52 °FPartly sunny.8 mph82%30.24 "HgN/A
2:20 PM52 °FPartly sunny.8 mph82%30.24 "HgN/A
1:50 PM52 °FPartly sunny.10 mph82%30.24 "HgN/A
1:20 PM52 °FPartly sunny.9 mph82%30.21 "HgN/A
12:50 PM52 °FPartly sunny.9 mph88%30.21 "HgN/A
12:20 PM50 °FPartly sunny.9 mph94%30.21 "Hg6 mi
11:50 AM50 °FPartly sunny.9 mph94%30.21 "Hg4 mi
11:20 AM50 °FPartly sunny.7 mph94%30.21 "Hg4 mi
10:50 AM50 °FFog.9 mph94%30.21 "Hg3 mi
10:20 AM48 °FFog.8 mph100%30.21 "Hg1 mi
9:50 AM48 °FFog.9 mph100%30.21 "Hg1 mi
9:20 AM48 °FDrizzle. Fog.9 mph100%30.18 "Hg1 mi
8:50 AM48 °FDrizzle. Fog.9 mph100%30.18 "Hg1 mi
8:20 AM48 °FLight rain. Fog.9 mph100%30.18 "Hg1 mi
7:50 AM48 °FDrizzle. Fog.8 mph100%30.18 "Hg1 mi
7:20 AM48 °FLight rain. Fog.9 mph100%30.18 "Hg1 mi
6:50 AM48 °FFog.8 mph100%30.15 "Hg1 mi
6:20 AM48 °FFog.8 mph100%30.15 "Hg1 mi
5:20 AM48 °FFog.7 mph100%30.15 "Hg1 mi
4:50 AM48 °FFog.7 mph100%30.15 "Hg1 mi
4:20 AM48 °FFog.7 mph100%30.15 "Hg1 mi
3:50 AM48 °FFog.6 mph100%30.15 "Hg1 mi
3:20 AM48 °FFog.8 mph100%30.15 "Hg1 mi
2:50 AM48 °FFog.8 mph100%30.15 "Hg1 mi
2:20 AM48 °FFog.7 mph100%30.15 "Hg1 mi
1:50 AM48 °FFog.9 mph100%30.15 "Hg1 mi
1:20 AM48 °FFog.9 mph100%30.15 "Hg1 mi
12:50 AM48 °FFog.8 mph100%30.15 "Hg1 mi
12:20 AM48 °FFog.8 mph100%30.15 "Hg2 mi
11:20 PM
Thu, Oct 8
48 °FFog.8 mph100%30.15 "Hg1 mi
Weather by CustomWeather, © 2015

See weather overviewHow to use our weather pages